This is the latest recevied weather packets stored in our database for station/object KD7CIH. If no packets are shown the sender has not sent any weather packets the latest 10 day(s).
| Time | Temp. | Humidity | Pressure | Rain* | Wind** | Luminosity | Snow |
|---|---|---|---|---|---|---|---|
| 1788399521 | 16.67° C | 56% | 1011.2 hPa | 1.52 mm | - | - | - |
| 1788399221 | 16.67° C | 54% | 1011.3 hPa | 1.52 mm | - | - | - |
| 1788398920 | 16.67° C | 51% | 1011.3 hPa | 1.52 mm | - | - | - |
| 1788398620 | 16.67° C | 50% | 1011.8 hPa | 1.52 mm | - | - | - |
| 1788398449 | 15.56° C | 53% | 1012.3 hPa | 1.52 mm | - | - | - |
| 1788398020 | 16.11° C | 54% | 1012.4 hPa | 1.52 mm | - | - | - |
| 1788397720 | 16.67° C | 53% | 1012.3 hPa | 1.52 mm | - | - | - |
| 1788397420 | 16.11° C | 56% | 1011.8 hPa | 1.52 mm | - | - | - |
| 1788397122 | 16.67° C | 56% | 1011.8 hPa | 1.52 mm | - | - | - |
| 1788396818 | 19.44° C | 49% | 1011.7 hPa | 0.25 mm | - | - | - |
| 1788396518 | 21.67° C | 32% | 1011.2 hPa | 0 mm | - | - | - |
| 1788396218 | 21.67° C | 31% | 1010.5 hPa | 0 mm | - | - | - |
| 1788395920 | 22.22° C | 31% | 1010.5 hPa | 0 mm | - | - | - |
| 1788395618 | 22.22° C | 31% | 1010.5 hPa | 0 mm | - | - | - |
| 1788395445 | 22.22° C | 31% | 1010.5 hPa | 0 mm | - | - | - |
| 1788395017 | 22.78° C | 31% | 1010.5 hPa | 0 mm | - | - | - |
| 1788394716 | 22.78° C | 31% | 1010.5 hPa | 0 mm | - | - | - |
| 1788394416 | 22.78° C | 31% | 1010.4 hPa | 0 mm | - | - | - |
| 1788394116 | 22.78° C | 31% | 1010.5 hPa | 0 mm | - | - | - |
| 1788393818 | 22.78° C | 31% | 1010.6 hPa | 0 mm | - | - | - |
| 1788393516 | 22.78° C | 31% | 1010.6 hPa | 0 mm | - | - | - |
| 1788393216 | 22.78° C | 30% | 1010.6 hPa | 0 mm | - | - | - |
| 1788392917 | 22.78° C | 30% | 1010.5 hPa | 0 mm | - | - | - |
| 1788392615 | 22.78° C | 29% | 1010.5 hPa | 0 mm | - | - | - |
| 1788392314 | 23.33° C | 31% | 1010.5 hPa | 0 mm | - | - | - |
* Rain latest hour (hover to see other rain measurements)
** Current wind speed in m/s (hover to see current wind gust speed)